PLT7600 SBGR-SBGO

Flight info

Callsign PLT7600
Flight time 1h 20m
Altitude 39000
Route ISMOB DCT CORVO
Aircraft B738/M-SDE2E3FGHIRWXY/LB1

Departure

Time 2026-05-08 21:08
Airport São Paulo/Guarulhos–Governor André Franco Montoro International Airport (SBGR)

Arrival

Time 2026-05-08 22:28
Airport Santa Genoveva International Airport (SBGO)
Time Latitude Longitude Altitude Speed Heading
2026-05-08 20:55 -23.42943 -46.48856 2464 ft 0 kts 276°
2026-05-08 20:59 -23.42943 -46.48855 2464 ft 2 kts 276°
2026-05-08 20:59 -23.42946 -46.48827 2464 ft 4 kts 275°
2026-05-08 21:00 -23.42948 -46.48799 2467 ft 3 kts 271°
2026-05-08 21:00 -23.42947 -46.48780 2464 ft 2 kts 257°
2026-05-08 21:00 -23.42943 -46.48769 2464 ft 2 kts 230°
2026-05-08 21:00 -23.42935 -46.48761 2466 ft 2 kts 200°
2026-05-08 21:01 -23.42924 -46.48758 2465 ft 2 kts 189°
2026-05-08 21:01 -23.42913 -46.48756 2464 ft 2 kts 186°
2026-05-08 21:01 -23.42909 -46.48755 2464 ft 0 kts 186°
2026-05-08 21:03 -23.42909 -46.48756 2464 ft 0 kts 186°
2026-05-08 21:03 -23.42923 -46.48757 2464 ft 5 kts 186°
2026-05-08 21:04 -23.42969 -46.48762 2467 ft 7 kts 184°
2026-05-08 21:04 -23.43019 -46.48767 2470 ft 8 kts 185°
2026-05-08 21:04 -23.43085 -46.48774 2470 ft 10 kts 186°
2026-05-08 21:04 -23.43150 -46.48767 2464 ft 10 kts 144°
2026-05-08 21:05 -23.43170 -46.48700 2466 ft 9 kts 97°
2026-05-08 21:05 -23.43176 -46.48632 2466 ft 9 kts 95°
2026-05-08 21:05 -23.43182 -46.48564 2464 ft 9 kts 95°
2026-05-08 21:05 -23.43187 -46.48498 2464 ft 9 kts 95°
2026-05-08 21:06 -23.43193 -46.48435 2465 ft 8 kts 99°
2026-05-08 21:06 -23.43229 -46.48389 2471 ft 8 kts 154°
2026-05-08 21:06 -23.43282 -46.48371 2471 ft 8 kts 163°
2026-05-08 21:06 -23.43343 -46.48351 2465 ft 12 kts 163°
2026-05-08 21:07 -23.43419 -46.48309 2463 ft 13 kts 105°
2026-05-08 21:07 -23.43392 -46.48199 2462 ft 27 kts 73°
2026-05-08 21:07 -23.43273 -46.47759 2462 ft 94 kts 73°
2026-05-08 21:07 -23.43033 -46.46869 2468 ft 148 kts 74°
2026-05-08 21:08 -23.42711 -46.45687 2757 ft 169 kts 70°
2026-05-08 21:08 -23.42324 -46.44479 3406 ft 172 kts 58°
2026-05-08 21:08 -23.41604 -46.43390 3843 ft 183 kts 40°
2026-05-08 21:08 -23.40626 -46.42509 4501 ft 184 kts 31°
2026-05-08 21:09 -23.39562 -46.41636 4981 ft 198 kts 31°
2026-05-08 21:09 -23.38466 -46.40707 5493 ft 205 kts 32°
2026-05-08 21:09 -23.37291 -46.39699 5656 ft 229 kts 34°
2026-05-08 21:09 -23.36083 -46.38446 5881 ft 254 kts 40°
2026-05-08 21:10 -23.34809 -46.37016 6296 ft 268 kts 40°
2026-05-08 21:10 -23.33499 -46.35535 6918 ft 274 kts 41°
2026-05-08 21:10 -23.32168 -46.34041 7686 ft 276 kts 41°
2026-05-08 21:10 -23.30735 -46.32650 8383 ft 276 kts 26°
2026-05-08 21:11 -23.28956 -46.32052 9259 ft 266 kts 360°
2026-05-08 21:11 -23.27149 -46.32416 10038 ft 268 kts 334°
2026-05-08 21:11 -23.25558 -46.33564 10464 ft 287 kts 322°
2026-05-08 21:11 -23.23847 -46.34850 10646 ft 311 kts 330°
2026-05-08 21:12 -23.21888 -46.36004 11015 ft 326 kts 332°
2026-05-08 21:12 -23.19848 -46.37148 11644 ft 332 kts 332°
2026-05-08 21:12 -23.17792 -46.38303 12411 ft 334 kts 332°
2026-05-08 21:12 -23.15718 -46.39483 13117 ft 338 kts 332°
2026-05-08 21:13 -23.13625 -46.40690 13821 ft 342 kts 332°
2026-05-08 21:13 -23.11517 -46.41917 14453 ft 346 kts 331°
2026-05-08 21:13 -23.09384 -46.43168 15090 ft 350 kts 331°
2026-05-08 21:13 -23.07229 -46.44438 15705 ft 355 kts 331°
2026-05-08 21:14 -23.05044 -46.45728 16318 ft 360 kts 331°
2026-05-08 21:14 -23.02863 -46.47018 16888 ft 365 kts 331°
2026-05-08 21:14 -23.00620 -46.48345 17465 ft 370 kts 331°
2026-05-08 21:14 -22.98351 -46.49687 18063 ft 373 kts 331°
2026-05-08 21:15 -22.96057 -46.51045 18605 ft 377 kts 331°
2026-05-08 21:15 -22.93744 -46.52413 19162 ft 379 kts 331°
2026-05-08 21:15 -22.91424 -46.53785 19735 ft 381 kts 330°
2026-05-08 21:15 -22.89092 -46.55164 20299 ft 382 kts 330°
2026-05-08 21:16 -22.86748 -46.56549 20847 ft 385 kts 330°
2026-05-08 21:16 -22.84382 -46.57946 21355 ft 388 kts 330°
2026-05-08 21:16 -22.82002 -46.59352 21854 ft 391 kts 330°
2026-05-08 21:16 -22.79604 -46.60767 22392 ft 393 kts 329°
2026-05-08 21:17 -22.77199 -46.62186 22931 ft 395 kts 329°
2026-05-08 21:17 -22.74781 -46.63612 23440 ft 397 kts 329°
2026-05-08 21:17 -22.72346 -46.65048 23869 ft 399 kts 329°
2026-05-08 21:17 -22.69897 -46.66491 24296 ft 401 kts 329°
2026-05-08 21:18 -22.67440 -46.67938 24730 ft 403 kts 329°
2026-05-08 21:18 -22.64970 -46.69392 25133 ft 405 kts 329°
2026-05-08 21:18 -22.62517 -46.70836 25486 ft 408 kts 329°
2026-05-08 21:18 -22.60011 -46.72310 25867 ft 410 kts 329°
2026-05-08 21:19 -22.57495 -46.73790 26266 ft 412 kts 329°
2026-05-08 21:19 -22.54969 -46.75274 26656 ft 414 kts 329°
2026-05-08 21:19 -22.52433 -46.76764 27053 ft 416 kts 329°
2026-05-08 21:19 -22.49883 -46.78261 27429 ft 418 kts 329°
2026-05-08 21:20 -22.47318 -46.79767 27796 ft 420 kts 329°
2026-05-08 21:20 -22.44743 -46.81278 28130 ft 422 kts 329°
2026-05-08 21:20 -22.42149 -46.82800 28425 ft 426 kts 328°
2026-05-08 21:20 -22.39539 -46.84330 28723 ft 429 kts 328°
2026-05-08 21:21 -22.36909 -46.85871 29072 ft 430 kts 328°
2026-05-08 21:21 -22.34274 -46.87415 29420 ft 432 kts 328°
2026-05-08 21:21 -22.31630 -46.88963 29746 ft 434 kts 328°
2026-05-08 21:21 -22.28970 -46.90520 30049 ft 436 kts 328°
2026-05-08 21:22 -22.26295 -46.92084 30306 ft 438 kts 328°
2026-05-08 21:22 -22.23612 -46.93653 30530 ft 440 kts 328°
2026-05-08 21:22 -22.20944 -46.95213 30727 ft 443 kts 328°
2026-05-08 21:22 -22.18233 -46.96797 31053 ft 443 kts 328°
2026-05-08 21:23 -22.15531 -46.98373 31499 ft 440 kts 328°
2026-05-08 21:23 -22.12850 -46.99937 31962 ft 437 kts 327°
2026-05-08 21:23 -22.10175 -47.01497 32324 ft 436 kts 327°
2026-05-08 21:23 -22.07503 -47.03056 32630 ft 437 kts 327°
2026-05-08 21:24 -22.04825 -47.04617 32982 ft 437 kts 327°
2026-05-08 21:24 -22.02155 -47.06174 33322 ft 437 kts 326°
2026-05-08 21:24 -22.00387 -47.07204 33524 ft 437 kts 326°
2026-05-08 21:24 -21.97706 -47.08765 33873 ft 437 kts 326°
2026-05-08 21:25 -21.95034 -47.10320 34206 ft 436 kts 326°
2026-05-08 21:25 -21.92369 -47.11871 34539 ft 435 kts 326°
2026-05-08 21:25 -21.89710 -47.13417 34856 ft 434 kts 326°
2026-05-08 21:25 -21.87059 -47.14958 35167 ft 433 kts 326°
2026-05-08 21:26 -21.84414 -47.16496 35471 ft 431 kts 326°
2026-05-08 21:26 -21.81768 -47.18033 35725 ft 432 kts 326°
2026-05-08 21:26 -21.79091 -47.19525 35962 ft 435 kts 330°
2026-05-08 21:26 -21.76234 -47.20645 36331 ft 439 kts 337°
2026-05-08 21:27 -21.73309 -47.21550 36700 ft 437 kts 337°
2026-05-08 21:27 -21.70381 -47.22436 36937 ft 437 kts 337°
2026-05-08 21:27 -21.67444 -47.23324 37113 ft 439 kts 337°
2026-05-08 21:27 -21.64502 -47.24221 37370 ft 439 kts 337°
2026-05-08 21:28 -21.61577 -47.25118 37692 ft 437 kts 337°
2026-05-08 21:28 -21.58659 -47.26019 38001 ft 435 kts 336°
2026-05-08 21:28 -21.55754 -47.26920 38272 ft 434 kts 336°
2026-05-08 21:28 -21.52850 -47.27825 38522 ft 434 kts 336°
2026-05-08 21:29 -21.49948 -47.28729 38752 ft 434 kts 336°
2026-05-08 21:29 -21.47057 -47.29630 38961 ft 433 kts 336°
2026-05-08 21:29 -21.44186 -47.30526 38955 ft 436 kts 336°
2026-05-08 21:30 -21.38362 -47.32339 38965 ft 435 kts 336°
2026-05-08 21:30 -21.32560 -47.34141 38980 ft 434 kts 336°
2026-05-08 21:31 -21.26765 -47.35941 38987 ft 433 kts 336°
2026-05-08 21:31 -21.20971 -47.37739 38977 ft 433 kts 336°
2026-05-08 21:32 -21.15187 -47.39532 38987 ft 433 kts 337°
2026-05-08 21:32 -21.09391 -47.41329 38989 ft 434 kts 337°
2026-05-08 21:33 -21.03589 -47.43126 38992 ft 435 kts 337°
2026-05-08 21:33 -20.97804 -47.44916 38986 ft 436 kts 337°
2026-05-08 21:34 -20.91964 -47.46720 38985 ft 437 kts 337°
2026-05-08 21:34 -20.86119 -47.48525 38988 ft 437 kts 337°
2026-05-08 21:35 -20.80266 -47.50331 38992 ft 439 kts 337°
2026-05-08 21:35 -20.74389 -47.52143 38994 ft 440 kts 337°
2026-05-08 21:36 -20.68510 -47.53955 38993 ft 440 kts 337°
2026-05-08 21:36 -20.62620 -47.55767 38993 ft 441 kts 337°
2026-05-08 21:37 -20.56725 -47.57580 38998 ft 441 kts 337°
2026-05-08 21:37 -20.50846 -47.59387 38997 ft 442 kts 337°
2026-05-08 21:38 -20.44927 -47.61204 38995 ft 443 kts 337°
2026-05-08 21:38 -20.39010 -47.63019 38994 ft 442 kts 337°
2026-05-08 21:39 -20.33103 -47.64830 38993 ft 442 kts 337°
2026-05-08 21:39 -20.27199 -47.66639 38971 ft 441 kts 337°
2026-05-08 21:40 -20.21303 -47.68443 38978 ft 441 kts 338°
2026-05-08 21:40 -20.15409 -47.70246 38983 ft 440 kts 337°
2026-05-08 21:41 -20.06587 -47.72942 38983 ft 440 kts 338°
2026-05-08 21:41 -20.00702 -47.74739 38991 ft 440 kts 338°
2026-05-08 21:42 -19.94808 -47.76537 38993 ft 441 kts 338°
2026-05-08 21:42 -19.88948 -47.78323 38990 ft 441 kts 338°
2026-05-08 21:43 -19.83044 -47.80121 39007 ft 442 kts 338°
2026-05-08 21:43 -19.77131 -47.81921 39039 ft 442 kts 338°
2026-05-08 21:44 -19.71218 -47.83718 39045 ft 442 kts 338°
2026-05-08 21:44 -19.65296 -47.85518 39006 ft 443 kts 338°
2026-05-08 21:45 -19.59365 -47.87319 39005 ft 443 kts 338°
2026-05-08 21:45 -19.53427 -47.89120 39009 ft 444 kts 338°
2026-05-08 21:46 -19.47478 -47.90924 39011 ft 444 kts 339°
2026-05-08 21:46 -19.41536 -47.92724 39007 ft 444 kts 339°
2026-05-08 21:47 -19.35593 -47.94523 39016 ft 444 kts 339°
2026-05-08 21:47 -19.29648 -47.96321 39015 ft 444 kts 339°
2026-05-08 21:48 -19.23703 -47.98117 39009 ft 444 kts 339°
2026-05-08 21:48 -19.17762 -47.99912 39009 ft 444 kts 339°
2026-05-08 21:49 -19.11868 -48.01690 39007 ft 443 kts 339°
2026-05-08 21:49 -19.05938 -48.03479 39007 ft 443 kts 339°
2026-05-08 21:50 -19.00008 -48.05266 39012 ft 442 kts 339°
2026-05-08 21:50 -18.94090 -48.07049 39057 ft 442 kts 339°
2026-05-08 21:51 -18.88210 -48.08904 39055 ft 440 kts 336°
2026-05-08 21:51 -18.82468 -48.11099 39068 ft 438 kts 334°
2026-05-08 21:52 -18.76758 -48.13345 39068 ft 438 kts 335°
2026-05-08 21:52 -18.71030 -48.15557 39053 ft 439 kts 335°
2026-05-08 21:53 -18.65288 -48.17748 39017 ft 439 kts 335°
2026-05-08 21:53 -18.59534 -48.19935 39009 ft 440 kts 335°
2026-05-08 21:54 -18.53776 -48.22123 39001 ft 441 kts 335°
2026-05-08 21:54 -18.48018 -48.24312 38695 ft 448 kts 335°
2026-05-08 21:55 -18.45080 -48.25429 38120 ft 448 kts 335°
2026-05-08 21:55 -18.42152 -48.26539 37520 ft 446 kts 335°
2026-05-08 21:55 -18.39234 -48.27644 36904 ft 445 kts 335°
2026-05-08 21:56 -18.33419 -48.29849 35676 ft 444 kts 335°
2026-05-08 21:56 -18.30507 -48.30953 34999 ft 445 kts 335°
2026-05-08 21:56 -18.27586 -48.32061 34295 ft 447 kts 336°
2026-05-08 21:56 -18.24675 -48.33163 33781 ft 444 kts 336°
2026-05-08 21:57 -18.21781 -48.34258 33229 ft 440 kts 336°
2026-05-08 21:57 -18.18909 -48.35345 32728 ft 436 kts 336°
2026-05-08 21:57 -18.16065 -48.36422 32230 ft 432 kts 336°
2026-05-08 21:57 -18.13244 -48.37492 31748 ft 429 kts 336°
2026-05-08 21:58 -18.10450 -48.38551 31268 ft 425 kts 336°
2026-05-08 21:58 -18.07678 -48.39602 30791 ft 422 kts 336°
2026-05-08 21:58 -18.04920 -48.40648 30308 ft 420 kts 337°
2026-05-08 21:58 -18.02175 -48.41688 29764 ft 418 kts 337°
2026-05-08 21:59 -17.99444 -48.42723 29246 ft 415 kts 337°
2026-05-08 21:59 -17.96772 -48.43734 28740 ft 411 kts 337°
2026-05-08 21:59 -17.94092 -48.44748 28243 ft 407 kts 338°
2026-05-08 21:59 -17.91436 -48.45753 27763 ft 404 kts 338°
2026-05-08 22:00 -17.88803 -48.46749 27281 ft 401 kts 338°
2026-05-08 22:00 -17.86188 -48.47738 26809 ft 398 kts 338°
2026-05-08 22:00 -17.83594 -48.48719 26339 ft 395 kts 338°
2026-05-08 22:00 -17.81012 -48.49695 25877 ft 392 kts 338°
2026-05-08 22:01 -17.78452 -48.50662 25413 ft 390 kts 338°
2026-05-08 22:01 -17.75904 -48.51625 24930 ft 389 kts 339°
2026-05-08 22:01 -17.73364 -48.52584 24462 ft 387 kts 339°
2026-05-08 22:01 -17.70835 -48.53547 23993 ft 386 kts 338°
2026-05-08 22:02 -17.68372 -48.54639 23529 ft 384 kts 335°
2026-05-08 22:02 -17.65953 -48.55814 23002 ft 382 kts 334°
2026-05-08 22:02 -17.63557 -48.57000 22521 ft 379 kts 334°
2026-05-08 22:02 -17.61176 -48.58172 22050 ft 376 kts 334°
2026-05-08 22:03 -17.58812 -48.59323 21586 ft 374 kts 335°
2026-05-08 22:03 -17.56460 -48.60457 21142 ft 371 kts 335°
2026-05-08 22:03 -17.54118 -48.61581 20703 ft 369 kts 335°
2026-05-08 22:03 -17.51793 -48.62693 20251 ft 367 kts 336°
2026-05-08 22:04 -17.49476 -48.63801 19797 ft 365 kts 336°
2026-05-08 22:04 -17.47166 -48.64905 19345 ft 364 kts 336°
2026-05-08 22:04 -17.44869 -48.66003 18890 ft 363 kts 336°
2026-05-08 22:04 -17.42569 -48.67101 18432 ft 362 kts 336°
2026-05-08 22:05 -17.40279 -48.68195 17958 ft 361 kts 336°
2026-05-08 22:05 -17.37999 -48.69283 17492 ft 359 kts 336°
2026-05-08 22:05 -17.35737 -48.70363 17046 ft 356 kts 336°
2026-05-08 22:05 -17.33491 -48.71435 16599 ft 353 kts 336°
2026-05-08 22:06 -17.31264 -48.72497 16179 ft 350 kts 336°
2026-05-08 22:06 -17.29081 -48.73539 15762 ft 348 kts 336°
2026-05-08 22:06 -17.26888 -48.74585 15333 ft 346 kts 336°
2026-05-08 22:06 -17.24703 -48.75627 14918 ft 343 kts 336°
2026-05-08 22:07 -17.22534 -48.76661 14502 ft 341 kts 336°
2026-05-08 22:07 -17.20380 -48.77687 14075 ft 340 kts 336°
2026-05-08 22:07 -17.18236 -48.78709 13626 ft 338 kts 336°
2026-05-08 22:07 -17.16100 -48.79727 13178 ft 336 kts 335°
2026-05-08 22:08 -17.13982 -48.80735 12745 ft 333 kts 335°
2026-05-08 22:08 -17.11885 -48.81733 12321 ft 330 kts 335°
2026-05-08 22:08 -17.09804 -48.82723 11912 ft 327 kts 335°
2026-05-08 22:08 -17.07745 -48.83701 11511 ft 324 kts 335°
2026-05-08 22:09 -17.05701 -48.84672 11115 ft 322 kts 335°
2026-05-08 22:09 -17.03667 -48.85638 10715 ft 320 kts 335°
2026-05-08 22:09 -17.01656 -48.86593 10455 ft 313 kts 335°
2026-05-08 22:09 -16.99706 -48.87519 10293 ft 303 kts 335°
2026-05-08 22:10 -16.97816 -48.88416 10166 ft 293 kts 335°
2026-05-08 22:10 -16.95986 -48.89285 10034 ft 284 kts 335°
2026-05-08 22:10 -16.94803 -48.89847 9880 ft 281 kts 335°
2026-05-08 22:10 -16.92425 -48.90975 9461 ft 279 kts 335°
2026-05-08 22:11 -16.90680 -48.91804 9152 ft 277 kts 335°
2026-05-08 22:11 -16.89522 -48.92353 8953 ft 275 kts 335°
2026-05-08 22:11 -16.87782 -48.93179 8656 ft 274 kts 335°
2026-05-08 22:11 -16.86052 -48.94000 8356 ft 272 kts 335°
2026-05-08 22:12 -16.84329 -48.94817 8063 ft 271 kts 335°
2026-05-08 22:12 -16.82615 -48.95630 7765 ft 270 kts 336°
2026-05-08 22:12 -16.80906 -48.96439 7472 ft 269 kts 336°
2026-05-08 22:12 -16.79202 -48.97247 7214 ft 267 kts 336°
2026-05-08 22:13 -16.77534 -48.98038 7052 ft 260 kts 335°
2026-05-08 22:13 -16.76108 -48.99145 6829 ft 258 kts 309°
2026-05-08 22:13 -16.75180 -49.00747 6558 ft 258 kts 299°
2026-05-08 22:13 -16.74292 -49.02374 6260 ft 258 kts 302°
2026-05-08 22:14 -16.73381 -49.03967 5931 ft 252 kts 302°
2026-05-08 22:14 -16.72502 -49.05528 5637 ft 247 kts 302°
2026-05-08 22:14 -16.71655 -49.07039 5486 ft 235 kts 302°
2026-05-08 22:14 -16.70843 -49.08485 5215 ft 226 kts 302°
2026-05-08 22:15 -16.70066 -49.09868 4924 ft 216 kts 302°
2026-05-08 22:15 -16.69328 -49.11183 4639 ft 202 kts 302°
2026-05-08 22:15 -16.68652 -49.12388 4385 ft 187 kts 302°
2026-05-08 22:15 -16.68034 -49.13488 4168 ft 167 kts 302°
2026-05-08 22:16 -16.67470 -49.14493 3935 ft 155 kts 302°
2026-05-08 22:16 -16.66926 -49.15461 3749 ft 154 kts 303°
2026-05-08 22:16 -16.66388 -49.16420 3544 ft 153 kts 303°
2026-05-08 22:16 -16.65848 -49.17379 3338 ft 155 kts 303°
2026-05-08 22:17 -16.65297 -49.18346 3109 ft 153 kts 301°
2026-05-08 22:17 -16.64771 -49.19300 2864 ft 152 kts 301°
2026-05-08 22:17 -16.64238 -49.20244 2682 ft 151 kts 300°
2026-05-08 22:17 -16.63705 -49.21200 2477 ft 153 kts 300°
2026-05-08 22:18 -16.63209 -49.22087 2450 ft 130 kts 301°
2026-05-08 22:18 -16.62704 -49.23011 2690 ft 168 kts 299°
2026-05-08 22:18 -16.62119 -49.24133 3476 ft 178 kts 301°
2026-05-08 22:18 -16.61454 -49.25303 4067 ft 193 kts 303°
2026-05-08 22:19 -16.60535 -49.26322 4810 ft 195 kts 332°
2026-05-08 22:19 -16.59277 -49.26870 5495 ft 201 kts 345°
2026-05-08 22:19 -16.57894 -49.27030 6012 ft 207 kts
2026-05-08 22:19 -16.56490 -49.26652 6537 ft 213 kts 26°
2026-05-08 22:20 -16.55279 -49.25703 6956 ft 232 kts 47°
2026-05-08 22:20 -16.54419 -49.24132 7007 ft 266 kts 73°
2026-05-08 22:20 -16.54326 -49.22189 7006 ft 275 kts 100°
2026-05-08 22:20 -16.54955 -49.20311 7009 ft 275 kts 112°
2026-05-08 22:21 -16.55741 -49.18497 7003 ft 274 kts 113°
2026-05-08 22:21 -16.56538 -49.16689 6999 ft 274 kts 114°
2026-05-08 22:21 -16.57334 -49.14886 7000 ft 274 kts 113°
2026-05-08 22:21 -16.58129 -49.13084 6993 ft 274 kts 113°
2026-05-08 22:22 -16.58923 -49.11282 6993 ft 274 kts 113°
2026-05-08 22:22 -16.59717 -49.09478 6996 ft 274 kts 113°
2026-05-08 22:22 -16.60512 -49.07671 6992 ft 274 kts 113°
2026-05-08 22:22 -16.61306 -49.05864 6995 ft 275 kts 113°
2026-05-08 22:23 -16.62191 -49.04104 6973 ft 275 kts 127°
2026-05-08 22:23 -16.63673 -49.02906 6976 ft 268 kts 157°
2026-05-08 22:23 -16.65475 -49.02579 6714 ft 264 kts 185°
2026-05-08 22:23 -16.67216 -49.03068 6397 ft 257 kts 207°
2026-05-08 22:24 -16.68762 -49.03963 6078 ft 252 kts 211°
2026-05-08 22:24 -16.70159 -49.05041 5608 ft 252 kts 234°
2026-05-08 22:24 -16.70714 -49.06670 5451 ft 233 kts 271°
2026-05-08 22:24 -16.70506 -49.08290 5208 ft 220 kts 284°
2026-05-08 22:25 -16.70042 -49.09767 4931 ft 208 kts 296°
2026-05-08 22:25 -16.69404 -49.11057 4674 ft 196 kts 301°
2026-05-08 22:25 -16.68738 -49.12241 4416 ft 179 kts 302°
2026-05-08 22:25 -16.68144 -49.13293 4217 ft 162 kts 302°
2026-05-08 22:26 -16.67592 -49.14275 4000 ft 155 kts 302°
2026-05-08 22:26 -16.67051 -49.15238 3803 ft 152 kts 302°
2026-05-08 22:26 -16.66521 -49.16191 3598 ft 152 kts 302°
2026-05-08 22:26 -16.65980 -49.17142 3416 ft 151 kts 303°
2026-05-08 22:27 -16.65439 -49.18091 3229 ft 153 kts 302°
2026-05-08 22:27 -16.64904 -49.19062 2990 ft 155 kts 300°
2026-05-08 22:27 -16.64359 -49.20026 2768 ft 153 kts 302°
2026-05-08 22:27 -16.63828 -49.20986 2515 ft 153 kts 301°
2026-05-08 22:28 -16.63321 -49.21882 2447 ft 122 kts 300°
2026-05-08 22:28 -16.63001 -49.22454 2455 ft 60 kts 300°
2026-05-08 22:28 -16.62899 -49.22629 2464 ft 1 kts 298°
2026-05-08 22:28 -16.62878 -49.22670 2460 ft 13 kts 298°
2026-05-08 22:29 -16.62826 -49.22769 2456 ft 16 kts 301°
2026-05-08 22:29 -16.62770 -49.22865 2457 ft 15 kts 301°
2026-05-08 22:29 -16.62715 -49.22957 2454 ft 15 kts 312°
2026-05-08 22:29 -16.62638 -49.22956 2454 ft 6 kts 30°
2026-05-08 22:30 -16.62602 -49.22933 2457 ft 6 kts 30°
2026-05-08 22:30 -16.62573 -49.22905 2460 ft 6 kts 76°
2026-05-08 22:30 -16.62585 -49.22857 2459 ft 10 kts 118°
2026-05-08 22:30 -16.62631 -49.22778 2459 ft 14 kts 121°
2026-05-08 22:31 -16.62679 -49.22696 2461 ft 13 kts 121°
2026-05-08 22:31 -16.62724 -49.22607 2460 ft 15 kts 121°
2026-05-08 22:31 -16.62781 -49.22508 2458 ft 16 kts 121°
2026-05-08 22:31 -16.62835 -49.22411 2458 ft 15 kts 120°
2026-05-08 22:32 -16.62892 -49.22310 2455 ft 17 kts 120°
2026-05-08 22:32 -16.62954 -49.22199 2452 ft 18 kts 120°
2026-05-08 22:32 -16.62992 -49.22069 2449 ft 20 kts 94°
2026-05-08 22:32 -16.62971 -49.21926 2455 ft 20 kts 77°
2026-05-08 22:33 -16.62943 -49.21788 2457 ft 19 kts 77°
2026-05-08 22:33 -16.62921 -49.21692 2460 ft 11 kts 77°
2026-05-08 22:33 -16.62886 -49.21627 2462 ft 10 kts 66°
2026-05-08 22:33 -16.62880 -49.21597 2461 ft 3 kts 79°
2026-05-08 22:34 -16.62875 -49.21567 2461 ft 0 kts 81°